www.pogodaiklimat.ru

Погода и климат >> Архив погоды >> Канада >> Нунавут >> Корал-Харбор


ПОГОДА в Корал-Харборе

  • Прогноз погоды в Корал-Харборе
  • Монитор погоды в Корал-Харборе

АРХИВ ПОГОДЫ в Корал-Харборе

Время (UTC), дата Ветер
(напр.,м/с)
 
Видим.   Явления Облачность Т
(С)
Тd
(С)
f
(%)
Тe
(С)
Тes
(С)
Комфортность P
(гПа)
Po
(гПа)
Тmin
(С)
Tmax
(С)
R
(мм)
R24
(мм)
S
(см)
09 20.05 0 24 км 10/10 100 м
[]
-4.3 -5.3 93 1026.2 1018.0
12 20.05 0 24 км 10/10 100 м
[St]
-4.8 -5.8 93 1025.9 1017.7 -5.0 -1.5
15 20.05 ЮВ 2 24 км 10/10 100 м
[]
-4.3 -5.3 93 -9 -9 1025.3 1017.1
18 20.05 В 2 24 км 9/9 200 м
[St]
-3.3 -5.0 88 -7 -5 1024.6 1016.4 -5.0 -3.3
21 20.05 ЮВ 2 24 км 9/9 300 м
[]
-3.3 -5.8 83 -7 -7 1023.8 1015.6
00 21.05 Ю 2 24 км 9/9 300 м
[Sc]
-3.3 -5.0 88 -8 -7 1023.5 1015.3 -5.0 -2.9
03 21.05 0 24 км 10/10 200 м
[]
-4.2 -5.5 91 1022.7 1014.5
06 21.05 0 24 км 10/10 200 м
[Sc]
-4.4 -5.5 92 1022.1 1013.9 -5.0 -2.9
09 21.05 0 9000 м 10/10 100 м
[]
-5.0 -5.5 96 1021.7 1013.5
12 21.05 0 19 км в посл. час переохл. осадки (гололёд) {морось} 10/10 100 м
[St]
-5.2 -6.3 92 1021.4 1013.2 -5.2 -2.9 0.0 32
15 21.05 ЮВ 6 24 км 10/10 200 м
[]
-4.7 -6.2 89 -12 -12 1020.6 1012.4
18 21.05 В 7 4800 м слаб. снег 10/10 200 м
[Sc]
-4.7 -6.2 89 -13 -13 1020.0 1011.8 -5.3 -3.7 0.0 31
21 21.05 0 3200 м 10/10 300 м
[]
-4.3 -5.7 90 1018.8 1010.6
00 22.05 В 8 1600 м слаб. снег 10/6 300 м
[Sc]
-3.8 -4.8 93 -13 -12 1017.6 1009.4 -5.3 -3.7 0.2
03 22.05 0 1600 м 6/6 600 м
[]
-3.5 -4.5 93 1015.8 1007.7
06 22.05 1200 м слаб. снег н/о -3.1 -4.2 92 1013.8 1005.7 -5.3 -3.1 4 6
09 22.05 0 3200 м 8/8 600 м
[]
-2.3 -3.9 89 1011.0 1002.9
12 22.05 0 6000 м слаб. снег 10/10 600 м
[Sc]
-1.9 -3.3 90 1008.1 1000.0 -4.0 -3.1 5 40
15 22.05 0 4800 м 10/10 1000 м
[]
-1.7 -3.3 89 1005.9 997.9
18 22.05 СВ 11 12 км слаб. снег 10/10 600 м
[Sc]
-0.7 -2.3 89 -9 -9 1003.7 995.8 -4.8 -0.7 1 35
21 22.05 0 4800 м 10/10 300 м
[]
-0.1 -1.2 92 1002.7 994.8
00 23.05 СВ 7 12 км слаб. снег 10/10 1000 м
[Sc]
-0.5 -1.8 91 -8 -8 1002.0 994.1 0.6 33
03 23.05 0 19 км 10/10 1000 м
[]
-1.2 -2.5 91 1001.3 993.4
06 23.05 0 6000 м слаб. снег 10/4 1000 м
[Sc Ac As]
-2.4 -3.2 94 1001.4 993.5 0.6 15
09 23.05 0 9000 м 9/9 600 м
[]
-3.4 -4.7 91 1001.9 994.0
12 23.05 1600 м слаб. снег н/о -3.0 -4.6 89 1003.0 995.1 -3.4 3 42
15 23.05 0 12 км 10/10 600 м
[]
-1.6 -4.0 84 1003.3 995.4
18 23.05 СВ 9 24 км {снег} 10/4 1500 м
[Sc As trans Ci fib]
-0.6 -4.0 78 -8 -8 1004.3 996.4 -0.6 0.4 40
21 23.05 0 24 км 9/9 600 м
[]
-0.7 -4.1 78 1005.1 997.2
00 24.05 С 7 24 км {ливн. осадки} 5/1 600 м
[Sc Ac inh]
-2.5 -5.2 82 -10 -10 1006.2 998.2 0.0 59
03 24.05 0 24 км 3/3 600 м
[]
-4.8 -7.7 80 1007.0 998.9
06 24.05 0 24 км 10/9 600 м
[Sc Ac As]
-3.9 -6.1 85 1008.2 1000.1 12
09 24.05 0 24 км 9/9 600 м
[]
-4.3 -6.6 84 1008.9 1000.8
12 24.05 0 24 км 6/6 600 м
[Sc]
-2.7 -6.0 78 1010.0 1001.9 -5.4 38
15 24.05 0 24 км 3/3 600 м
[]
-2.0 -5.7 76 1010.9 1002.8
18 24.05 С 5 24 км 5/4 300 м
[Sc Ac trans]
-1.1 -5.3 73 -7 -4 1012.1 1004.0 -1.1
21 24.05 0 24 км 9/9 600 м
[]
0.0 -3.4 78 1012.7 1004.6
00 25.05 ЮЗ 4 24 км 9/9 600 м
[Sc]
-0.6 -1.9 91 -6 -6 1012.9 1004.8 -5.4 0.0
03 25.05 0 24 км 9/9 300 м
[]
-1.1 -2.1 93 1013.0 1004.9
06 25.05 0 19 км слаб. снег 10/10 300 м
[Sc]
-1.6 -2.4 94 1013.2 1005.1 -5.4 0.0 0.2 57
09 25.05 0 24 км 10/10 100 м
[]
-1.8 -2.8 93 1013.3 1005.2
12 25.05 0 24 км слаб. снег 10/10 600 м
[Sc]
-2.0 -3.7 88 1013.7 1005.6 -2.1 0.0 0.0 37
15 25.05 0 24 км 9/9 600 м
[]
-0.4 -2.6 85 1014.0 1005.9
18 25.05 В 2 24 км слаб. снег {туман} 9/9 100 м
[Sc]
-0.5 -2.4 87 -4 -2 1014.1 1006.0 -2.1 0.0 0.2 56
21 25.05 0 24 км 10/10 300 м
[]
+0.4 -1.7 86 1014.2 1006.1
00 26.05 ЮЗ 3 24 км {ливн. осадки, снег} 10/10 600 м
[Sc]
+0.1 -1.3 90 -5 -5 1014.5 1006.4 -2.1 +1.1 0.2
03 26.05 0 24 км 10/10 300 м
[]
-0.7 -1.3 96 1014.5 1006.4
06 26.05 0 9000 м слаб. снег 10/10 100 м
[Frnb]
-1.7 -2.1 97 1014.0 1005.9 -2.1 +1.1 1 33
09 26.05 0 9000 м 8/8 1000 м
[]
-3.0 -3.3 98 1013.9 1005.8
12 26.05 9000 м слаб. снег н/о -1.9 -2.3 97 1014.3 1006.2 -3.0 +1.1 0.4 33
15 26.05 0 24 км 10/10 100 м
[]
-0.9 -1.9 93 1014.3 1006.2
18 26.05 0 24 км слаб. снег 10/10 100 м
[St]
-0.4 -1.5 92 1014.4 1006.3 -3.0 -0.3 0.0 32
21 26.05 0 24 км 10/10 100 м
[]
0.0 -2.5 83 1013.9 1005.8
00 27.05 0 24 км {снег} 9/9 100 м
[Sc]
-0.4 -4.1 76 1013.8 1005.7 -3.0 +0.3 0.0 31
03 27.05 0 24 км 9/9 100 м
[]
-1.3 -2.1 94 1013.5 1005.4
06 27.05 0 24 км 10/10 100 м
[Sc]
-2.0 -2.6 96 1012.5 1004.4 -3.0 +0.3

 

Местоположение метеостанции Корал-Харбор (Нунавут, Канада): широта 64.20 долгота -83.36 высота над уровнем моря 64 м.

В архиве по умолчанию представлена погода в Корал-Харборе за последнюю неделю. Архивные данные за месяц целиком и за предыдущие месяцы, начиная с января 2011 года, Вы можете получить, выбрав интересующий диапазон дат из раскрывающегося списка и нажав кнопку "Ввод!".


*Определитесь, кто Вы:
робот инопланетянин человек

Внимание! Время в таблицах - всемирное. Для получения местного времени необходимо прибавить поправку, которая равна -5 ч.

Смотрите также архив погоды в соседних городах и на ближайших метеорологических станциях:

Погода в Кейп-Дорсете (Нунавут, Канада) (330 км)
Погода в Вейджер Бэй (Нунавут, Канада) (340 км)
Погода в Саллюите (Квебек, Канада) (446 км)
Погода в Ранкин-Инлете (Нунавут, Канада) (460 км)
Погода в Холл Бич (Нунавут, Канада) (518 км)
Погода в Кам Фор (Нунавут, Канада) (549 км)
Погода в Кугааруке (Нунавут, Канада) (560 км)
Погода на Острове Роули (Нунавут, Канада) (575 км)
Погода в Национальном парке Пингалюи (Квебек, Канада) (589 км)
Погода в Бейкер Лейк (Нунавут, Канада) (610 км)

Пояснения к столбцам:

Ветер - указаны скорость ветра в м/с - средняя за 10 мин, порывы в срок и между сроками (в фигурных скобках) и направление, откуда дует ветер: С - северный, СВ - северо-восточный, В - восточный, ЮВ - юго-восточный, Ю - южный, ЮЗ - юго-западный, З - западный, СЗ - северо-западный.
Видимость - горизонтальная дальность видимости в метрах или километрах. При видимости от 1 до 10 км при отсутствии осадков обычно наблюдается дымка, при ухудшении видимости до 1 км и менее - туман. В сухую погоду видимость может ухудшаться дымом, пылью или мглою.
Явления - указаны атмосферные явления, наблюдавшиеся в срок или в последний час перед сроком; фигурными скобками обозначены явления, наблюдавшиеся между сроками (за 1-3 часа до срока); квадратными скобками обозначены град или гололедные отложения с указанием их диаметра в мм.
Облачность - указаны через наклонную черту общая и нижняя облачность в баллах и высота нижней границы облаков в метрах; квадратными скобками обозначены формы облаков: Ci - перистые, Cs - перисто-слоистые, Cc - перисто-кучевые, Ac - высококучевые, As - высокослоистые, Sc - слоисто-кучевые, Ns - слоисто-дождевые, Cu - кучевые, Cb - кучево-дождевые. Подробнее классификацию облаков см. в Атласе облаков (PDF).
T - Температура воздуха - температура, измеренная на высоте 2 м над землей.
Td - Температура точки росы - температура, при понижении до которой содержащийся в воздухе водяной пар достигнет насыщения.
f - Относительная влажность воздуха - влажноcть воздуха, измеренная на высоте 2 м над землей.
Te - Эффективная температура - температура, которую ощущает одетый по сезону человек в тени. Характеристика душности погоды. При расчете учитывается влияние влажности воздуха и скорости ветра на теплоощущения человека.
Tes - Эффективная температура на солнце - температура, которую ощущает человек, с поправкой на солнечный нагрев. Характеристика знойности погоды. Зависит от высоты солнца над горизонтом, облачности и скорости ветра. Ночью, в пасмурную погоду, а также при ветре 12 м/с и более поправка равна нулю.
P - Атмосферное давление - приведенное к уровню моря атмосферное давление.
Po - Атмосферное давление - измеренное на уровне метеостанции атмосферное давление.
Tmin - Минимальная температура - минимум температуры воздуха на высоте 2 м над землей.
Tmax - Максимальная температура - максимум температуры воздуха на высоте 2 м над землей.
R - Количество осадков - Количество выпавших осадков за период времени, мм. При наведении курсора мыши на число - период времени, за который выпало указанное количество осадков.
R24 - Количество осадков - Количество выпавших осадков за 24 часа, мм.
S - Снежный покров - Высота снежного покрова, см. При наведении курсора мыши на число - состояние снежного покрова и степень покрытия местности в баллах.